Total_Precipitation_Accumulation
0.00 0.00 0.00 0.00 0.00 0.00 0.00 0.00 0.00 0.00 0.00 0.00 0.00 0.00 0.00 0.00 0.00 0.00 0.00 0.00 0.00 0.00 0.00 0.00 0.00 0.03 0.02 0.01 0.01 0.01 0.01 0.01 0.00 0.00 0.00 0.00 0.00 0.00 0.00 0.00 0.00 0.00 0.00
0.00 0.00 0.00 0.00 0.00 0.00 0.00 0.00 0.00 0.00 0.00 0.00 0.00 0.00 0.00 0.00 0.00 0.00 0.00 0.00 0.00 0.00 0.00 0.00 0.00 0.00 0.01 0.01 0.00 0.01 0.01 0.02 0.02 0.01 0.00 0.00 0.00 0.00 0.00 0.01 0.00 0.00 0.00
0.00 0.01 0.01 0.01 0.01 0.02 0.01 0.00 0.00 0.00 0.00 0.00 0.00 0.00 0.00 0.00 0.00 0.00 0.00 0.00 0.00 0.01 0.01 0.01 0.00 0.01 0.01 0.01 0.01 0.00 0.01 0.03 0.05 0.03 0.00 0.00 0.00 0.00 0.00 0.00 0.00 0.00 0.00
0.00 0.00 0.02 0.02 0.02 0.02 0.03 0.02 0.01 0.00 0.00 0.00 0.00 0.00 0.00 0.00 0.00 0.00 0.00 0.00 0.01 0.00 0.00 0.00 0.01 0.03 0.03 0.04 0.02 0.03 0.05 0.06 0.03 0.03 0.01 0.00 0.00 0.00 0.00 0.00 0.00 0.00 0.00
0.00 0.00 0.02 0.06 0.06 0.11 0.22 0.23 0.16 0.16 0.10 0.04 0.01 0.01 0.01 0.01 0.01 0.00 0.00 0.00 0.00 0.00 0.00 0.00 0.00 0.01 0.03 0.04 0.04 0.08 0.10 0.13 0.08 0.06 0.02 0.00 0.00 0.01 0.00 0.00 0.00 0.00 0.00
0.00 0.02 0.10 0.16 0.16 0.23 0.38 0.43 0.65 0.62 0.35 0.17 0.07 0.03 0.03 0.05 0.03 0.01 0.00 0.00 0.00 0.00 0.00 0.00 0.00 0.04 0.06 0.10 0.16 0.25 0.25 0.15 0.06 0.05 0.02 0.02 0.03 0.03 0.02 0.01 0.01 0.01 0.00
0.02 0.07 0.14 0.20 0.30 0.47 0.60 0.73 0.68 0.44 0.31 0.26 0.19 0.14 0.09 0.08 0.10 0.06 0.02 0.01 0.00 0.00 0.02 0.06 0.06 0.03 0.13 0.21 0.34 0.25 0.13 0.08 0.03 0.01 0.01 0.01 0.02 0.02 0.02 0.01 0.01 0.02 0.01
0.07 0.11 0.32 0.43 0.41 0.35 0.35 0.27 0.26 0.25 0.22 0.18 0.15 0.11 0.08 0.13 0.15 0.12 0.08 0.03 0.00 0.02 0.04 0.09 0.13 0.15 0.28 0.24 0.18 0.10 0.04 0.03 0.04 0.03 0.02 0.02 0.02 0.01 0.01 0.01 0.01 0.03 0.05
0.03 0.11 0.34 0.50 0.33 0.23 0.24 0.21 0.16 0.13 0.07 0.04 0.04 0.09 0.16 0.13 0.18 0.17 0.11 0.03 0.02 0.03 0.04 0.06 0.13 0.19 0.22 0.10 0.02 0.01 0.00 0.00 0.01 0.01 0.01 0.00 0.00 0.00 0.01 0.04 0.05 0.11 0.09
0.03 0.13 0.27 0.22 0.28 0.23 0.22 0.20 0.10 0.04 0.04 0.12 0.14 0.22 0.23 0.18 0.26 0.25 0.13 0.09 0.06 0.06 0.09 0.10 0.17 0.08 0.06 0.06 0.05 0.02 0.00 0.02 0.01 0.00 0.01 0.00 0.00 0.00 0.02 0.09 0.15 0.21 0.13
0.13 0.19 0.16 0.16 0.19 0.15 0.22 0.18 0.12 0.19 0.22 0.33 0.37 0.46 0.61 0.37 0.22 0.12 0.08 0.04 0.02 0.04 0.07 0.08 0.07 0.04 0.02 0.03 0.03 0.00 0.00 0.00 0.00 0.00 0.00 0.00 0.00 0.00 0.02 0.14 0.25 0.29 0.30
0.09 0.10 0.09 0.13 0.18 0.30 0.42 0.60 0.61 0.55 0.59 0.66 0.73 0.54 0.28 0.20 0.13 0.07 0.03 0.02 0.03 0.05 0.07 0.05 0.07 0.09 0.08 0.10 0.05 0.01 0.00 0.00 0.00 0.00 0.00 0.00 0.00 0.01 0.09 0.20 0.28 0.40 0.53
0.10 0.12 0.16 0.18 0.20 0.37 0.78 1.06 0.78 0.37 0.21 0.13 0.10 0.11 0.12 0.13 0.09 0.02 0.02 0.01 0.02 0.01 0.03 0.14 0.20 0.17 0.09 0.02 0.02 0.01 0.00 0.00 0.00 0.00 0.00 0.00 0.01 0.05 0.11 0.19 0.21 0.30 0.34
0.17 0.23 0.23 0.19 0.17 0.12 0.14 0.16 0.12 0.08 0.08 0.08 0.07 0.09 0.13 0.13 0.06 0.02 0.02 0.01 0.00 0.00 0.02 0.03 0.01 0.00 0.00 0.00 0.00 0.00 0.00 0.00 0.00 0.00 0.00 0.00 0.01 0.06 0.12 0.14 0.16 0.19 0.19
0.25 0.18 0.13 0.11 0.10 0.12 0.13 0.11 0.09 0.10 0.12 0.09 0.07 0.07 0.10 0.12 0.09 0.07 0.07 0.03 0.04 0.06 0.06 0.01 0.04 0.00 0.00 0.00 0.00 0.00 0.00 0.00 0.00 0.00 0.00 0.00 0.00 0.05 0.19 0.28 0.25 0.32 0.37
0.33 0.33 0.22 0.11 0.06 0.04 0.04 0.04 0.05 0.06 0.04 0.03 0.02 0.02 0.02 0.03 0.04 0.03 0.03 0.04 0.05 0.04 0.01 0.02 0.05 0.04 0.03 0.01 0.02 0.01 0.00 0.00 0.00 0.00 0.00 0.00 0.00 0.01 0.10 0.22 0.40 0.26 0.28
0.11 0.10 0.05 0.02 0.01 0.01 0.02 0.06 0.06 0.03 0.02 0.01 0.01 0.00 0.00 0.00 0.00 0.00 0.00 0.00 0.00 0.00 0.00 0.00 0.01 0.00 0.00 0.00 0.00 0.00 0.00 0.00 0.00 0.00 0.00 0.00 0.00 0.00 0.04 0.08 0.19 0.23 0.20
0.03 0.02 0.01 0.01 0.02 0.02 0.04 0.04 0.05 0.03 0.01 0.00 0.00 0.00 0.00 0.00 0.00 0.00 0.00 0.00 0.00 0.00 0.00 0.00 0.00 0.00 0.00 0.00 0.00 0.00 0.00 0.00 0.00 0.00 0.00 0.00 0.00 0.00 0.00 0.01 0.03 0.06 0.19
0.01 0.00 0.00 0.00 0.01 0.02 0.06 0.06 0.03 0.02 0.01 0.00 0.00 0.00 0.00 0.00 0.00 0.00 0.00 0.00 0.00 0.00 0.00 0.00 0.00 0.00 0.00 0.00 0.00 0.00 0.00 0.00 0.00 0.00 0.00 0.00 0.00 0.00 0.00 0.00 0.00 0.01 0.05
0.08 0.04 0.01 0.00 0.02 0.06 0.05 0.02 0.02 0.02 0.02 0.01 0.00 0.00 0.00 0.00 0.00 0.00 0.00 0.00 0.00 0.00 0.00 0.00 0.00 0.00 0.00 0.00 0.00 0.00 0.00 0.00 0.00 0.00 0.00 0.00 0.00 0.00 0.00 0.00 0.00 0.00 0.00
0.05 0.02 0.01 0.00 0.00 0.01 0.00 0.01 0.02 0.03 0.01 0.00 0.00 0.00 0.00 0.00 0.00 0.00 0.00 0.00 0.00 0.00 0.00 0.00 0.00 0.00 0.00 0.00 0.00 0.00 0.00 0.00 0.00 0.00 0.00 0.00 0.00 0.00 0.00 0.00 0.00 0.00 0.00
0.01 0.01 0.01 0.01 0.00 0.01 0.01 0.03 0.02 0.01 0.00 0.00 0.00 0.00 0.00 0.00 0.00 0.00 0.00 0.00 0.00 0.00 0.00 0.00 0.00 0.00 0.00 0.00 0.00 0.00 0.00 0.00 0.00 0.00 0.00 0.00 0.00 0.00 0.00 0.00 0.00 0.00 0.00
0.02 0.01 0.01 0.01 0.00 0.01 0.02 0.02 0.01 0.00 0.01 0.01 0.01 0.01 0.00 0.00 0.00 0.00 0.00 0.00 0.00 0.00 0.00 0.00 0.00 0.00 0.00 0.00 0.00 0.00 0.00 0.00 0.00 0.00 0.00 0.00 0.00 0.00 0.00 0.00 0.00 0.00 0.00
0.01 0.00 0.01 0.02 0.07 0.08 0.03 0.02 0.02 0.03 0.01 0.00 0.00 0.00 0.00 0.00 0.00 0.00 0.00 0.00 0.00 0.00 0.00 0.00 0.00 0.00 0.00 0.00 0.00 0.00 0.00 0.00 0.00 0.00 0.00 0.00 0.00 0.00 0.00 0.00 0.00 0.00 0.00
0.01 0.03 0.04 0.05 0.05 0.05 0.04 0.02 0.01 0.02 0.00 0.00 0.00 0.00 0.00 0.00 0.00 0.00 0.00 0.00 0.00 0.00 0.00 0.00 0.00 0.00 0.00 0.00 0.00 0.00 0.00 0.00 0.00 0.00 0.00 0.00 0.00 0.00 0.00 0.00 0.00 0.00 0.00
0.04 0.05 0.03 0.03 0.02 0.01 0.00 0.00 0.01 0.02 0.01 0.00 0.00 0.00 0.00 0.00 0.00 0.00 0.00 0.00 0.00 0.00 0.00 0.00 0.00 0.00 0.00 0.00 0.00 0.00 0.00 0.00 0.00 0.00 0.00 0.00 0.00 0.00 0.00 0.00 0.00 0.00 0.00